Location: Clermont
(50.2608°N, 4.3172°E)
Time: 17:34:22
(UTC+00:00)

SL-16 R/B - Pass Details

Date: 13 August 2020
Orbit: 843 x 845 km, 71.0° (Epoch: 25 September)

Event Time Altitude Azimuth Distance (km) Brightness Sun altitude
Rises 20:21:19 0° 331° (NNW) 3,417 6.8 -11.2°
Reaches altitude 10° 20:23:49 10° 335° (NNW) 2,478 5.7 -11.6°
Maximum altitude 20:29:27 61° 56° (NE) 961 2.4 -12.2°
Enters shadow 20:33:41 18° 133° (SE) 1,973 3.5 -12.7°
